Satellite: AEROCUB3
Catalog number: 35005
Epoch time:      10077.29659161
Element set:     250
Inclination:      040.4727 deg
RA of node:       035.0613 deg
Eccentricity:    0.0019050
Arg of perigee:   055.6861 deg
Mean anomaly:     304.5768 deg
Mean motion:   15.45542573 rev/day
Decay rate:     3.6358e-04 rev/day^2
Epoch rev:            4665
Checksum:              292

Satellite: DRAGNSAT
Catalog number: 35690
Epoch time:      10076.22573662
Element set:     317
Inclination:      051.6207 deg
RA of node:       315.5093 deg
Eccentricity:    0.0003725
Arg of perigee:   309.8010 deg
Mean anomaly:     050.2776 deg
Mean motion:   16.41595152 rev/day
Decay rate:   4.717833e-02 rev/day^2
Epoch rev:            3656
Checksum:              290

Satellite: POLLUX
Catalog number: 35693
Epoch time:      10077.83488935
Element set:     331
Inclination:      051.6292 deg
RA of node:       310.6138 deg
Eccentricity:    0.0005521
Arg of perigee:   229.4850 deg
Mean anomaly:     130.5752 deg
Mean motion:   16.13753378 rev/day
Decay rate:    5.35022e-03 rev/day^2
Epoch rev:            3674
Checksum:              296

Satellite: CASTOR
Catalog number: 35694
Epoch time:      10077.86013633
Element set:     230
Inclination:      051.6378 deg
RA of node:       319.3317 deg
Eccentricity:    0.0004219
Arg of perigee:   185.5808 deg
Mean anomaly:     174.5158 deg
Mean motion:   15.90196496 rev/day
Decay rate:     5.1761e-04 rev/day^2
Epoch rev:            3663
Checksum:              311

Satellite: METEOR-M
Catalog number: 35865
Epoch time:      10077.28443062
Element set:     152
Inclination:      098.7699 deg
RA of node:       131.6884 deg
Eccentricity:    0.0001550
Arg of perigee:   269.9410 deg
Mean anomaly:     090.1565 deg
Mean motion:   14.21828992 rev/day
Decay rate:       1.76e-06 rev/day^2
Epoch rev:            2580
Checksum:              311

Satellite: RS-38
Catalog number: 35869
Epoch time:      10077.82847054
Element set:     155
Inclination:      098.7689 deg
RA of node:       132.2534 deg
Eccentricity:    0.0003830
Arg of perigee:   267.5762 deg
Mean anomaly:     092.4938 deg
Mean motion:   14.21977312 rev/day
Decay rate:       1.76e-06 rev/day^2
Epoch rev:            2588
Checksum:              341

/EX


_______________________________________________
Via the Keps mailing list courtesy of AMSAT-NA
http://amsat.org/mailman/listinfo/keps

--- ViaMAIL!/WC v1.60d
 * Origin: Chowdanet (401-724-4410) telnet://chowdanet.com  (1:323/120)